DLH714 EDDM-RJTT

Flight info

Callsign DLH714
Flight time N/A
Altitude 36000
Route AKINI1S AKINI Y104 MAMOR L132 AGNAV DCT SUPIL DCT KILNU L132 EKPEK DCT GOVEN/N0483F370 DCT KUNER/K0898F370 DCT BALIT/N0484F370 DCT KEDUX DCT LOGNA DCT BALTI DCT KOKAT/K0913F370 N746 ROLEK/K0911F390 N746 BABID/K0919F410 N746 GU N992 HAB L168 IGROD/N0484F410 Y304 OLKAP/N0486F400 Y304 YTE Y32 RUBIS Y10 GODIN
Aircraft A359/H-SDE2E3GHIJ3J4J5LM1ORWXY/LB1D1

Departure

Time 2026-05-05 10:12
Airport Munich Airport (EDDM)

Arrival

Time N/A
Airport Tokyo Haneda International Airport (RJTT)
Time Latitude Longitude Altitude Speed Heading
2026-05-05 09:35 48.35789 11.79263 1492 ft 0 kts 263°
2026-05-05 09:57 48.35790 11.79274 1476 ft 2 kts 261°
2026-05-05 09:57 48.35792 11.79295 1476 ft 2 kts 260°
2026-05-05 09:57 48.35795 11.79316 1476 ft 2 kts 257°
2026-05-05 09:58 48.35798 11.79336 1476 ft 2 kts 252°
2026-05-05 09:58 48.35803 11.79355 1476 ft 2 kts 241°
2026-05-05 09:58 48.35810 11.79371 1476 ft 2 kts 223°
2026-05-05 09:58 48.35820 11.79381 1476 ft 2 kts 199°
2026-05-05 09:59 48.35831 11.79385 1476 ft 1 kts 185°
2026-05-05 09:59 48.35839 11.79386 1479 ft 1 kts 179°
2026-05-05 09:59 48.35844 11.79386 1480 ft 1 kts 177°
2026-05-05 09:59 48.35851 11.79385 1476 ft 1 kts 175°
2026-05-05 10:00 48.35857 11.79384 1476 ft 1 kts 174°
2026-05-05 10:00 48.35860 11.79384 1476 ft 0 kts 174°
2026-05-05 10:03 48.35856 11.79384 1476 ft 2 kts 174°
2026-05-05 10:03 48.35822 11.79390 1476 ft 7 kts 173°
2026-05-05 10:04 48.35763 11.79400 1486 ft 8 kts 173°
2026-05-05 10:04 48.35710 11.79409 1479 ft 9 kts 173°
2026-05-05 10:04 48.35647 11.79420 1481 ft 9 kts 174°
2026-05-05 10:04 48.35582 11.79431 1488 ft 10 kts 173°
2026-05-05 10:05 48.35509 11.79444 1486 ft 10 kts 173°
2026-05-05 10:05 48.35458 11.79502 1480 ft 9 kts 128°
2026-05-05 10:05 48.35415 11.79581 1478 ft 10 kts 136°
2026-05-05 10:05 48.35351 11.79607 1479 ft 10 kts 174°
2026-05-05 10:06 48.35281 11.79619 1487 ft 10 kts 174°
2026-05-05 10:06 48.35232 11.79628 1485 ft 11 kts 173°
2026-05-05 10:06 48.35130 11.79645 1486 ft 11 kts 173°
2026-05-05 10:06 48.35041 11.79661 1479 ft 12 kts 174°
2026-05-05 10:07 48.34959 11.79675 1485 ft 13 kts 173°
2026-05-05 10:07 48.34870 11.79691 1480 ft 13 kts 173°
2026-05-05 10:07 48.34816 11.79722 1482 ft 12 kts 130°
2026-05-05 10:07 48.34813 11.79838 1485 ft 11 kts 84°
2026-05-05 10:08 48.34822 11.79961 1491 ft 12 kts 83°
2026-05-05 10:08 48.34831 11.80090 1489 ft 13 kts 84°
2026-05-05 10:08 48.34844 11.80242 1484 ft 14 kts 84°
2026-05-05 10:08 48.34854 11.80382 1482 ft 13 kts 84°
2026-05-05 10:09 48.34831 11.80512 1476 ft 13 kts 128°
2026-05-05 10:09 48.34749 11.80558 1484 ft 13 kts 173°
2026-05-05 10:09 48.34702 11.80566 1488 ft 0 kts 173°
2026-05-05 10:10 48.34700 11.80566 1488 ft 1 kts 173°
2026-05-05 10:10 48.34691 11.80568 1491 ft 1 kts 173°
2026-05-05 10:10 48.34686 11.80569 1491 ft 2 kts 173°
2026-05-05 10:11 48.34602 11.80539 1479 ft 13 kts 216°
2026-05-05 10:11 48.34531 11.80453 1478 ft 13 kts 219°
2026-05-05 10:11 48.34474 11.80350 1478 ft 13 kts 250°
2026-05-05 10:11 48.34460 11.80200 1489 ft 23 kts 264°
2026-05-05 10:12 48.34419 11.79672 1479 ft 81 kts 263°
2026-05-05 10:12 48.34329 11.78501 1483 ft 136 kts 263°
2026-05-05 10:12 48.34248 11.77448 1480 ft 167 kts 263°
2026-05-05 10:12 48.34046 11.74993 2145 ft 179 kts 262°
2026-05-05 10:13 48.33935 11.73738 2499 ft 189 kts 262°
2026-05-05 10:13 48.33774 11.71566 2815 ft 209 kts 269°
2026-05-05 10:13 48.34037 11.69303 3045 ft 226 kts 291°
2026-05-05 10:13 48.34974 11.67284 3447 ft 237 kts 318°
2026-05-05 10:14 48.36446 11.65964 4025 ft 240 kts 340°
2026-05-05 10:14 48.38133 11.65383 4533 ft 249 kts 351°
2026-05-05 10:14 48.39907 11.64956 4825 ft 268 kts 351°
2026-05-05 10:14 48.41771 11.64484 5326 ft 276 kts 350°
2026-05-05 10:15 48.43677 11.63966 6027 ft 280 kts 350°
2026-05-05 10:15 48.45804 11.63778 6805 ft 281 kts
2026-05-05 10:15 48.47094 11.64154 7187 ft 285 kts 19°
2026-05-05 10:15 48.49302 11.66150 8139 ft 287 kts 44°
2026-05-05 10:16 48.50464 11.68159 8699 ft 292 kts 53°
2026-05-05 10:16 48.51845 11.71096 9633 ft 292 kts 57°
2026-05-05 10:16 48.53011 11.73756 10206 ft 301 kts 59°
2026-05-05 10:16 48.54250 11.76412 10586 ft 318 kts 54°
2026-05-05 10:17 48.55150 11.78211 10795 ft 329 kts 54°
2026-05-05 10:17 48.56602 11.81135 11140 ft 345 kts 54°
2026-05-05 10:17 48.58077 11.84149 11480 ft 360 kts 54°
2026-05-05 10:17 48.59577 11.87227 11810 ft 374 kts 55°
2026-05-05 10:18 48.61160 11.90510 12193 ft 387 kts 55°
2026-05-05 10:18 48.62764 11.93845 12668 ft 395 kts 55°
2026-05-05 10:18 48.64391 11.97232 13230 ft 401 kts 55°
2026-05-05 10:18 48.66131 12.01054 13814 ft 406 kts 60°
2026-05-05 10:19 48.67329 12.04834 14342 ft 407 kts 72°
2026-05-05 10:19 48.67977 12.08992 14881 ft 408 kts 85°
2026-05-05 10:19 48.68005 12.13264 15439 ft 408 kts 98°
2026-05-05 10:19 48.67419 12.17449 15995 ft 408 kts 110°
2026-05-05 10:20 48.66409 12.21473 16556 ft 410 kts 115°
2026-05-05 10:20 48.65230 12.25469 17125 ft 412 kts 117°
2026-05-05 10:20 48.63990 12.29404 17675 ft 415 kts 118°
2026-05-05 10:20 48.62726 12.33348 18216 ft 418 kts 118°
2026-05-05 10:21 48.61424 12.37447 18643 ft 421 kts 117°
2026-05-05 10:21 48.60153 12.41496 19126 ft 425 kts 117°
2026-05-05 10:21 48.58901 12.45529 19613 ft 428 kts 117°
2026-05-05 10:21 48.57625 12.49658 20106 ft 431 kts 117°
2026-05-05 10:22 48.56356 12.53781 20589 ft 434 kts 117°
2026-05-05 10:22 48.55057 12.58013 21098 ft 437 kts 117°
2026-05-05 10:22 48.53799 12.62104 21579 ft 440 kts 117°
2026-05-05 10:22 48.52428 12.66545 22125 ft 444 kts 117°
2026-05-05 10:23 48.51172 12.70604 22641 ft 447 kts 117°
2026-05-05 10:23 48.49840 12.74911 23140 ft 450 kts 116°
2026-05-05 10:23 48.48508 12.79221 23598 ft 453 kts 117°
2026-05-05 10:23 48.47167 12.83531 24009 ft 457 kts 117°
2026-05-05 10:24 48.45810 12.87880 24394 ft 460 kts 117°
2026-05-05 10:24 48.44460 12.92204 24790 ft 464 kts 117°
2026-05-05 10:24 48.43062 12.96667 25205 ft 467 kts 117°
2026-05-05 10:24 48.41649 13.01165 25611 ft 471 kts 117°
2026-05-05 10:25 48.40223 13.05705 25994 ft 474 kts 117°
2026-05-05 10:25 48.38791 13.10259 26374 ft 477 kts 117°
2026-05-05 10:25 48.37363 13.14792 26761 ft 480 kts 117°
2026-05-05 10:25 48.35923 13.19354 27145 ft 484 kts 117°
2026-05-05 10:26 48.34473 13.23945 27509 ft 488 kts 117°
2026-05-05 10:26 48.32993 13.28614 27879 ft 491 kts 117°
2026-05-05 10:26 48.31514 13.33271 28214 ft 494 kts 117°
2026-05-05 10:26 48.30535 13.36353 28440 ft 496 kts 117°
2026-05-05 10:27 48.29030 13.41083 28757 ft 500 kts 117°
2026-05-05 10:27 48.27492 13.45910 29070 ft 503 kts 117°
2026-05-05 10:27 48.25933 13.50790 29415 ft 505 kts 117°
2026-05-05 10:27 48.24388 13.55615 29734 ft 508 kts 117°
2026-05-05 10:28 48.22859 13.60387 30154 ft 507 kts 117°
2026-05-05 10:28 48.21341 13.65226 30576 ft 506 kts 115°
2026-05-05 10:28 48.20112 13.70259 31004 ft 505 kts 110°
2026-05-05 10:28 48.19021 13.75310 31399 ft 504 kts 109°
2026-05-05 10:29 48.17934 13.80565 31794 ft 503 kts 109°
2026-05-05 10:29 48.16931 13.85524 32143 ft 503 kts 109°
2026-05-05 10:29 48.15890 13.90702 32500 ft 501 kts 109°
2026-05-05 10:29 48.14869 13.95760 32863 ft 501 kts 109°
2026-05-05 10:30 48.13854 14.00755 33203 ft 500 kts 109°
2026-05-05 10:30 48.12837 14.05728 33520 ft 499 kts 109°
2026-05-05 10:30 48.11805 14.10753 33825 ft 499 kts 109°